Coraopolis, PA

4:36 AM EST on February 22, 2017 (GMT -0500)
Pittsburgh International

Weather History for KPIT - October, 2012

Change the Weather History Date:

Friday, October 5, 2012

  Actual Average Record
Temperature  
Mean Temperature 65 °F 56 °F  
Max Temperature 75 °F 66 °F 91 °F (1879)
Min Temperature 55 °F 46 °F 31 °F (1965)
Degree Days  
Heating Degree Days 0 9  
Month to date heating degree days 13 43  
Since 1 July heating degree days 145 157  
Cooling Degree Days 0 1  
Month to date cooling degree days 3 5  
Year to date cooling degree days 1017 733  
Growing Degree Days 15 (Base 50)    
Moisture  
Dew Point 54 °F    
Average Humidity 68    
Maximum Humidity 86    
Minimum Humidity 49    
Precipitation  
Precipitation 0.00 in 0.08 in 1.00 in (2000)
Month to date precipitation 0.16 0.37  
Year to date precipitation 31.55 30.19  
Snow  
Snow 0.00 in 0.00 in 0.00 in (2001)
Month to date snowfall 0.0 0.0  
Since 1 July snowfall 0.0 0.0  
Snow Depth 0.00 in    
Sea Level Pressure  
Sea Level Pressure 30.06 in    
Wind  
Wind Speed 7 mph (SSW)    
Max Wind Speed 15 mph    
Max Gust Speed 20 mph    
Visibility 10 miles    
Events      
T = Trace of Precipitation, MM = Missing Value Source: NWS Daily Summary

Daily Weather History Graph

Daily Weather History Graph

Search for Another Location

Airport or City:

Trip Planner

Search our weather history database for the weather conditions in past years. The results will help you decide how hot, cold, wet, or windy it might be!

Date:

Astronomy

Oct. 05, 2012 Rise Set
Actual Time 7:21 AM EDT 6:55 PM EDT
Civil Twilight 6:54 AM EDT 7:22 PM EDT
Nautical Twilight 6:23 AM EDT 7:54 PM EDT
Astronomical Twilight 5:51 AM EDT 8:26 PM EDT
Moon 10:16 PM EDT (10/5) 12:29 PM EDT (10/5)
Length of Visible Light 12h 28m
Length of Day
11h 33m
Waning Gibbous, 74% of the Moon is Illuminated
Oct 5
Waning Gibbous
Oct 8
Last Quarter
Oct 15
New
Oct 21
First Quarter
Oct 29
Full

Hourly Weather History & Observations

Time (EDT) Temp. Dew Point Humidity Pressure Visibility Wind Dir Wind Speed Gust Speed Precip Events Conditions
12:51 AM 62.1 °F 52.0 °F 70% 30.14 in 10.0 mi SSW 5.8 mph - N/A   Clear
1:51 AM 62.6 °F 53.6 °F 72% 30.14 in 10.0 mi SW 6.9 mph - N/A   Clear
2:51 AM 61.0 °F 53.1 °F 75% 30.14 in 10.0 mi SW 6.9 mph - N/A   Clear
3:51 AM 61.0 °F 53.1 °F 75% 30.13 in 10.0 mi SSW 5.8 mph - N/A   Clear
4:51 AM 60.1 °F 53.1 °F 78% 30.12 in 10.0 mi SSW 4.6 mph - N/A   Clear
5:51 AM 57.9 °F 52.0 °F 81% 30.13 in 10.0 mi Calm Calm - N/A   Clear
6:51 AM 57.9 °F 52.0 °F 81% 30.13 in 10.0 mi Calm Calm - N/A   Clear
7:51 AM 55.9 °F 52.0 °F 87% 30.14 in 8.0 mi South 3.5 mph - N/A   Partly Cloudy
8:51 AM 62.1 °F 53.1 °F 72% 30.14 in 10.0 mi Variable 4.6 mph - N/A   Partly Cloudy
9:51 AM 64.9 °F 54.0 °F 68% 30.13 in 10.0 mi SW 9.2 mph - N/A   Partly Cloudy
10:51 AM 68.0 °F 55.0 °F 63% 30.12 in 10.0 mi SW 8.1 mph - N/A   Scattered Clouds
11:51 AM 71.1 °F 55.9 °F 59% 30.09 in 10.0 mi SW 12.7 mph - N/A   Scattered Clouds
12:51 PM 73.0 °F 55.9 °F 55% 30.08 in 10.0 mi SW 11.5 mph - N/A   Scattered Clouds
1:51 PM 73.9 °F 55.0 °F 52% 30.05 in 10.0 mi SW 11.5 mph - N/A   Mostly Cloudy
2:51 PM 73.9 °F 54.0 °F 50% 30.04 in 10.0 mi WSW 9.2 mph 18.4 mph N/A   Mostly Cloudy
3:51 PM 73.0 °F 54.0 °F 51% 30.02 in 10.0 mi SW 11.5 mph 16.1 mph N/A   Mostly Cloudy
4:51 PM 73.9 °F 55.0 °F 52% 30.00 in 10.0 mi SW 9.2 mph - N/A   Mostly Cloudy
5:51 PM 72.0 °F 54.0 °F 53% 29.99 in 10.0 mi SW 6.9 mph - N/A   Mostly Cloudy
6:51 PM 71.1 °F 55.0 °F 57% 29.98 in 10.0 mi SSW 4.6 mph - N/A   Mostly Cloudy
7:51 PM 68.0 °F 55.9 °F 65% 29.98 in 10.0 mi Calm Calm - N/A   Mostly Cloudy
8:51 PM 66.0 °F 55.9 °F 70% 29.95 in 10.0 mi South 4.6 mph - N/A   Mostly Cloudy
9:51 PM 66.9 °F 55.0 °F 66% 29.94 in 10.0 mi South 4.6 mph - N/A   Overcast
10:51 PM 66.0 °F 54.0 °F 65% 29.91 in 10.0 mi South 5.8 mph - N/A   Overcast
11:51 PM 68.0 °F 53.6 °F 60% 29.89 in 10.0 mi SSW 8.1 mph - N/A   Overcast